Regional Weather Roundup
Issued by NWS

Home | Current Version | Previous Version | Text Only | Print | Product List | Glossary On
Versions: 1 2 3 4 5 6 7 8 9 10 11 12 13 14 15 16 17 18 19 20 21 22 23 24 25 26 27 28 29 30 31 32 33 34 35 36 37 38 39 40 41 42 43 44 45 46 47 48 49 50
270
ASUS44 KJAN 201710
RWRMS

MISSISSIPPI HOURLY WEATHER ROUNDUP
NATIONAL WEATHER SERVICE JACKSON MS
1200 PM CDT SUN APR 20 2014

NOTE: "FAIR: INDICATES FEW OR NO CLOUDS BELOW 12,000 FEET WITH NO
SIGNIFICANT WEATHER AND/OR OBSTRUCTIONS TO VISIBILITY.

MSZ001>002-007>008-010>013-018>021-025>028-034>036-201800-
NORTHWEST MISSISSIPPI

CITY           SKY/WX    TMP DP  RH WIND       PRES   REMARKS
CLARKSDALE       N/A     75  50  41 SE8       30.21F
CLEVELAND      FAIR      74  54  50 S7        30.20F
GREENWOOD      SUNNY     75  54  47 SE6       30.21F
GREENVILLE     MOSUNNY   75  53  46 SE7       30.19F
GRENADA        FAIR      73  54  49 E8        30.22F
OLIVE BRANCH   PTSUNNY   73  48  40 S9        30.21F
OXFORD         FAIR      72  48  43 SE3       30.24F
TUNICA         SUNNY     73  50  43 S9        30.21F
$$

MSZ003>006-009-014>017-022>024-029>033-037>039-201800-
NORTHEAST MISSISSIPPI

CITY           SKY/WX    TMP DP  RH WIND       PRES   REMARKS
BELMONT        FAIR      71  47  42 SE5       30.23F
COLUMBUS AFB   SUNNY     73  46  39 VRB1      30.23F
CORINTH        FAIR      73  46  38 S7        30.22F
GOLDN TRIANGLE SUNNY     70  48  46 SE5       30.26F
STARKVILLE     FAIR      70  50  49 SE5       30.23F
TUPELO         SUNNY     72  49  44 SW8       30.23F
$$

MSZ040-058-201800-
CENTRAL MISSISSIPPI

CITY           SKY/WX    TMP DP  RH WIND       PRES   REMARKS
JACKSON INTL   MOSUNNY   75  54  47 CALM      30.20F
JACKSON HAWKNS SUNNY     75  53  46 VRB5      30.21F
MERIDIAN KEY   SUNNY     71  51  49 NE7       30.22F
MERIDIAN NAS   SUNNY     70  51  51 MISG      30.23F
RAYMOND        FAIR      75  72  88 S7        30.20F
VICKSBURG      SUNNY     77  57  50 NE7       30.20F
$$

MSZ059>079-201800-
SOUTH MISSISSIPPI

CITY           SKY/WX    TMP DP  RH WIND       PRES   REMARKS
BROOKHAVEN     FAIR      73  55  53 S6        30.23S
COLUMBIA       FAIR      73  55  53 MISG      30.19F
HATTIESBURG    SUNNY     74  55  51 VRB6G20   30.21F
MCCOMB         SUNNY     76  55  48 VRB5      30.20F
NATCHEZ        SUNNY     77  48  36 W3        30.19F
PINE BELT      SUNNY     73  54  49 NE7       30.21F
$$

MSZ080>082-201800-
COASTAL MISSISSIPPI

CITY           SKY/WX    TMP DP  RH WIND       PRES   REMARKS
BAY ST LOUIS   SUNNY     75  54  46 VRB5      30.18F
BILOXI         SUNNY     75  56  51 NE8       30.17F
PASCAGOULA     SUNNY     74  54  49 N7        30.18S
GULFPORT       SUNNY     79  53  40 N9        30.16F
$$



USA.gov is the U.S. government's official web portal to all federal, state and local government web resources and services.